Theta_e
348 349 348 348 347 348 348 350 349 349 349 348 347 347 347 347 347 348 349 350 350 348 347 347 347 345 347 345 346 345 345 345 344 344 345 345 344 344 344 345 347 348 348 348 348 347 346 346 346 345 348 346 348 344 343 342 344 346 340 342 341 341
347 348 348 348 347 348 349 348 346 347 347 347 347 347 346 344 347 346 348 348 348 347 347 346 347 347 344 344 345 345 345 345 344 344 345 345 345 344 344 345 347 348 348 347 347 344 345 346 346 347 347 346 346 346 344 344 346 344 341 340 341 342
346 348 348 346 347 349 347 347 345 346 345 346 346 346 344 343 343 344 346 346 348 347 346 347 348 346 346 346 344 347 345 345 344 344 344 344 345 344 344 344 346 348 347 347 344 343 342 343 344 346 345 347 346 345 341 343 345 340 339 340 339 342
343 347 347 347 348 348 347 347 346 346 346 345 344 342 340 339 339 342 343 346 348 347 347 346 349 350 348 345 345 346 346 345 345 344 345 344 344 345 344 344 344 347 347 345 340 345 345 345 342 345 350 348 346 345 342 341 343 340 340 340 340 341
345 346 348 348 347 346 346 346 346 347 346 346 344 342 340 340 338 341 343 345 345 347 346 346 347 347 346 344 344 342 342 342 342 342 344 341 340 339 343 336 341 344 341 340 337 341 342 348 349 346 346 348 344 342 342 341 342 340 339 339 339 340
346 344 345 348 347 347 346 344 345 346 346 346 345 341 340 339 337 341 340 341 343 344 344 344 347 346 345 345 343 341 340 340 339 339 342 339 337 337 336 333 332 333 333 335 336 341 343 343 343 345 344 345 344 341 340 341 340 342 338 338 338 338
346 344 345 348 348 347 345 344 346 347 346 345 344 341 339 339 340 338 340 339 342 341 341 342 345 345 343 344 343 342 340 339 338 338 340 337 337 336 333 333 332 331 330 330 333 338 341 341 342 342 344 343 341 340 341 338 340 337 336 336 336 336
346 345 345 348 348 346 345 344 345 346 347 346 344 340 340 339 342 338 340 339 342 341 340 342 342 342 343 344 343 342 341 338 338 338 339 336 338 335 333 332 333 331 328 328 332 335 342 342 343 343 342 342 341 339 341 338 337 336 335 334 333 333
346 346 346 345 345 346 347 344 346 347 346 348 346 342 341 340 342 341 341 339 340 343 339 342 340 340 341 342 343 343 340 338 339 338 339 335 338 337 334 331 335 333 331 332 334 340 342 346 345 344 343 340 341 338 336 339 335 335 334 332 330 331
345 347 346 345 345 345 346 343 344 345 344 346 347 346 346 341 342 340 341 341 340 343 346 341 340 339 339 341 342 342 340 340 339 339 339 333 335 341 337 333 336 335 331 334 338 339 340 344 344 344 342 341 340 341 340 338 333 333 332 331 329 329
346 347 345 344 346 346 345 344 344 344 346 346 347 347 345 342 342 340 340 344 342 342 344 343 344 340 340 342 341 345 340 341 340 339 340 333 335 343 340 337 339 338 342 341 341 341 339 340 342 341 343 342 342 340 338 337 333 332 330 329 328 328
346 347 344 343 344 344 344 344 344 344 345 346 348 345 343 343 339 340 341 342 345 344 344 342 347 342 341 344 342 345 344 343 343 343 344 337 339 342 337 336 339 342 341 343 342 343 343 341 338 340 342 340 341 338 337 332 332 330 329 327 326 325
347 347 344 343 342 344 344 345 344 343 344 346 347 344 343 342 342 342 342 341 345 345 344 344 349 344 343 343 343 346 346 346 345 345 346 344 344 344 342 342 344 346 343 341 341 342 342 341 340 341 343 341 338 337 334 329 329 329 329 327 325 324
347 345 345 344 343 342 341 344 344 343 344 345 344 343 343 341 343 343 344 342 344 342 344 345 348 345 346 345 344 345 344 345 345 344 344 345 342 343 341 343 342 345 343 340 339 342 341 340 342 344 340 339 340 335 335 330 329 329 328 326 326 323
346 345 345 343 343 341 342 340 341 342 344 344 344 342 342 345 343 341 341 344 344 342 343 345 347 345 344 345 343 343 342 342 344 344 339 343 343 340 343 343 343 340 341 340 339 340 340 339 338 338 339 337 334 333 338 331 328 326 327 328 326 325
346 345 345 344 343 342 343 342 341 344 344 344 342 342 344 344 341 341 341 342 344 344 344 344 345 345 344 344 340 340 340 342 343 342 340 343 342 342 343 343 342 342 339 339 339 338 340 337 336 336 336 335 334 336 334 329 329 324 323 324 325 325
346 346 346 346 343 344 343 342 341 341 344 344 342 341 341 343 343 340 340 340 343 343 344 343 345 344 344 342 341 341 341 344 344 342 343 343 341 342 341 340 340 343 341 338 338 336 337 336 335 336 337 335 336 337 331 330 328 325 324 323 322 324
346 346 346 345 343 345 342 344 342 340 343 342 341 341 340 340 340 340 340 340 342 343 344 342 344 343 343 343 344 343 342 344 343 344 342 343 341 341 342 341 339 343 342 338 336 334 334 334 334 333 333 334 335 336 332 329 329 329 322 319 319 318
345 345 345 346 343 346 342 344 345 343 343 342 341 341 341 339 340 340 339 340 341 342 342 341 342 342 343 344 346 346 348 350 347 349 349 340 337 338 340 342 340 340 342 339 337 336 335 334 332 332 330 334 334 335 331 329 328 328 324 319 317 318
345 345 346 346 343 343 339 341 340 340 339 338 338 339 341 339 339 339 339 338 340 343 340 342 341 343 345 346 346 345 348 348 348 348 344 339 336 338 339 339 339 338 338 339 339 338 336 333 331 331 331 333 335 332 326 326 325 323 323 321 317 317
345 345 344 344 341 340 337 338 339 336 336 338 337 338 339 340 340 339 337 336 339 343 340 343 343 344 344 347 347 348 348 349 348 346 345 343 338 338 340 339 338 338 336 335 335 336 335 334 329 328 330 330 332 332 331 323 322 320 319 319 318 318
346 344 344 344 341 341 339 337 337 337 337 337 336 336 336 340 341 339 336 335 339 343 341 343 344 342 345 345 346 347 347 348 347 345 345 344 338 338 337 337 337 336 338 335 334 335 335 332 326 324 323 325 326 326 327 326 322 319 317 317 317 318
345 344 344 344 342 340 340 341 340 339 338 337 340 340 339 340 342 335 336 336 343 344 342 341 343 343 344 344 346 346 345 348 346 346 345 341 338 337 337 336 337 336 335 337 336 338 335 332 325 326 326 323 318 317 321 322 322 321 318 315 314 313
345 344 344 344 343 344 343 344 344 343 342 340 338 340 342 342 344 335 334 337 345 343 343 340 341 341 342 343 346 346 347 346 346 346 342 340 338 336 336 336 339 339 337 332 333 332 336 333 330 326 320 320 319 318 314 314 317 320 319 316 315 314
345 345 345 344 344 344 343 343 344 344 344 342 342 340 341 337 341 336 334 336 341 344 343 341 342 342 342 344 346 347 346 346 345 346 343 342 340 337 336 337 337 338 336 332 330 332 334 334 334 331 326 321 319 316 315 317 317 318 319 314 314 315
346 346 345 345 345 345 342 341 341 337 337 337 336 335 335 335 336 335 331 335 339 343 343 342 342 342 341 343 345 346 347 345 345 346 346 343 342 340 336 336 335 337 336 337 333 331 331 334 338 333 333 336 331 323 321 318 316 311 318 319 316 315
346 346 346 346 345 345 343 341 341 338 338 337 335 336 339 340 339 339 336 336 338 343 342 342 342 341 341 343 345 346 346 346 345 347 346 344 340 338 337 337 338 337 337 335 335 330 330 329 334 334 334 334 334 334 331 317 314 316 310 315 317 314
346 345 346 346 345 346 342 342 341 340 339 339 338 337 340 341 342 340 337 338 339 342 342 341 342 342 341 342 343 345 346 345 345 346 346 345 344 342 339 338 338 338 337 336 334 331 330 330 329 329 332 332 332 332 331 326 328 317 316 310 312 317
345 346 346 346 345 346 344 343 342 341 340 341 342 342 341 341 340 340 338 339 339 340 342 341 341 342 342 341 342 344 344 345 346 345 345 344 345 343 340 338 337 335 334 334 332 333 332 331 331 330 330 330 331 329 329 329 328 328 322 317 313 312
339 344 347 346 345 346 346 344 343 342 341 341 343 341 340 339 339 338 336 337 339 339 340 341 341 340 342 341 342 343 344 344 346 346 342 343 344 341 339 337 336 335 335 334 334 333 331 332 333 334 332 330 328 328 327 326 325 324 324 322 317 313
336 343 347 346 346 346 346 345 343 344 343 342 343 341 339 338 337 336 334 336 337 337 338 339 341 341 341 342 343 343 343 344 346 346 345 343 343 339 338 338 337 337 337 336 335 334 332 334 334 334 333 332 330 329 326 324 323 323 321 319 317 316
335 338 346 346 346 346 346 345 345 346 345 344 343 341 339 337 337 334 333 334 335 335 337 339 340 341 342 342 343 343 344 344 345 345 344 345 342 340 338 338 339 339 339 338 337 335 333 331 333 333 333 332 331 331 329 327 326 326 324 321 321 317
333 334 339 347 346 347 346 345 346 347 346 346 344 343 341 339 336 332 332 332 333 334 337 337 338 339 342 343 343 343 343 343 344 345 345 344 342 340 340 339 339 338 337 336 336 338 334 333 332 332 332 333 333 332 330 330 331 328 328 326 324 317
332 335 336 342 346 347 346 346 347 347 347 346 344 345 343 340 337 335 334 333 335 336 337 337 338 339 341 343 343 344 344 344 345 345 345 344 342 340 341 340 337 336 337 336 337 338 337 336 335 335 336 333 333 332 330 331 329 331 328 325 320 319
333 335 335 340 345 347 346 347 347 348 347 347 345 345 345 342 341 340 339 339 338 339 338 338 339 340 341 342 343 344 345 345 344 343 344 343 342 341 341 339 336 336 335 335 336 338 337 337 335 335 335 334 334 332 332 332 332 329 327 326 326 323
332 332 333 336 345 347 347 347 348 348 348 347 345 346 345 344 343 343 342 341 340 340 340 340 340 340 341 342 343 343 344 344 344 343 344 343 342 341 339 337 336 336 334 335 335 338 337 335 335 335 335 335 334 333 333 333 331 329 329 329 328 327
333 332 333 334 341 348 348 347 348 348 349 348 347 346 345 346 345 345 344 343 342 341 341 341 340 340 340 341 343 343 343 344 344 343 343 342 341 340 339 337 335 335 334 335 336 337 336 334 335 336 335 335 334 334 334 333 331 331 330 329 330 327
Wind_Speed
14 15 14 12 11 11 13 17 15 16 16 15 14 14 13 13 10 10 11 11 11 9 8 8 10 9 13 10 12 11 11 9 8 8 7 6 6 5 5 6 6 7 8 8 8 8 6 4 2 2 5 7 6 5 3 3 3 1 6 6 7 7
12 16 14 10 10 10 12 14 12 11 11 12 13 13 10 9 10 7 11 8 7 6 7 7 8 10 8 9 10 11 11 10 9 7 6 6 6 5 5 5 6 7 8 9 10 4 3 2 1 1 4 4 4 3 2 2 2 4 6 6 7 8
14 14 15 13 10 9 13 10 12 12 9 12 11 10 8 9 8 9 9 8 7 5 7 7 6 9 8 11 10 14 12 11 10 8 6 6 5 5 5 5 6 7 8 9 5 3 3 3 2 2 1 2 3 3 3 3 2 5 5 7 6 12
14 15 13 9 9 10 11 10 9 8 8 8 9 8 9 8 8 8 9 7 7 8 7 7 10 16 12 8 9 13 14 12 11 9 8 5 6 5 6 5 5 6 6 4 4 2 3 3 3 2 1 2 3 4 4 3 3 6 5 8 8 14
15 12 13 9 10 10 10 11 10 9 9 9 8 8 8 7 7 6 8 5 6 7 8 7 7 7 4 6 7 6 7 6 5 6 8 4 4 5 4 5 3 4 4 4 5 4 3 1 1 3 1 3 4 3 3 3 4 4 6 7 7 13
14 14 12 10 11 10 11 10 10 10 9 9 9 8 7 7 8 7 6 7 6 6 5 6 7 7 7 6 7 7 6 6 6 6 7 5 5 4 4 5 5 5 4 5 4 4 5 4 3 2 1 3 4 3 3 3 3 5 7 6 7 12
14 13 14 14 10 10 9 8 10 10 9 9 7 8 8 8 6 9 6 7 6 6 5 5 7 6 6 7 7 7 7 7 6 6 6 6 5 5 6 5 5 5 5 6 7 5 7 4 3 4 2 5 5 3 2 4 2 6 6 6 7 11
14 12 11 14 12 11 9 10 10 10 9 9 8 8 7 8 7 10 8 7 6 7 6 5 7 6 4 7 7 6 7 6 6 6 6 7 6 5 6 6 5 8 6 7 8 7 6 5 4 3 3 6 4 3 1 5 6 7 6 7 7 9
14 14 10 11 12 9 9 9 11 10 9 10 7 7 8 9 8 9 9 9 6 6 6 5 6 6 4 6 7 7 7 6 7 7 7 8 7 6 6 7 6 7 7 7 4 9 5 4 3 3 3 5 5 4 5 6 7 8 7 6 6 7
15 13 10 9 9 8 8 9 11 10 8 10 7 7 7 7 7 9 8 8 8 5 3 4 8 6 7 7 7 7 6 5 6 7 6 8 7 5 7 6 6 6 7 4 8 6 7 4 2 2 3 3 4 3 4 6 9 8 7 7 6 6
12 12 11 10 10 9 7 7 10 8 9 10 8 7 5 7 6 6 6 6 6 6 4 5 5 7 6 6 6 4 6 6 6 8 6 7 6 5 5 5 4 3 4 8 6 6 6 4 3 2 2 3 3 3 6 4 7 9 9 8 7 5
14 11 12 10 10 9 8 8 10 9 9 9 8 6 7 6 7 8 7 6 4 5 6 6 4 6 6 4 4 3 4 5 5 5 5 6 5 4 4 4 3 8 7 6 7 5 5 4 3 2 2 3 2 4 5 5 8 9 9 8 8 6
14 13 13 12 11 10 9 8 6 7 8 9 6 7 6 5 6 7 8 8 5 5 5 6 4 7 7 4 4 3 3 3 3 3 4 4 4 3 3 4 6 6 6 7 6 4 3 3 4 3 2 3 2 5 6 4 10 9 10 9 8 8
14 16 15 11 11 10 10 9 8 6 7 8 6 6 5 4 4 6 6 8 6 6 6 6 4 5 4 4 4 4 4 3 4 5 4 4 4 3 4 2 7 5 4 5 6 5 4 2 2 2 2 2 3 5 4 5 4 4 7 11 9 9
14 15 13 13 11 11 10 10 10 8 8 9 7 6 5 4 5 5 5 6 7 7 7 7 5 6 5 4 5 5 5 4 4 4 5 4 3 4 1 6 6 7 4 3 4 3 3 3 2 1 1 3 5 5 0 3 6 4 3 6 10 8
14 15 13 10 9 10 10 9 8 7 9 9 7 5 4 3 4 5 5 5 7 7 8 7 5 6 6 4 5 5 5 4 4 5 5 5 3 2 3 6 3 6 6 4 4 3 3 3 1 1 2 5 5 3 3 3 3 5 4 3 5 8
15 15 13 10 10 9 10 10 9 8 11 9 9 7 6 4 4 6 6 5 7 8 8 8 6 6 6 6 4 5 5 5 4 5 5 6 2 0 3 7 2 3 3 5 4 4 3 3 2 1 2 2 3 2 3 2 2 4 5 4 5 6
12 12 10 8 10 8 10 8 8 8 10 10 9 7 6 6 5 6 7 6 8 8 8 8 7 6 6 6 4 5 5 6 5 6 5 5 6 4 1 6 4 2 4 5 5 5 4 3 3 3 3 1 1 2 2 3 1 4 5 5 4 4
13 13 10 8 9 7 10 7 6 8 10 8 7 7 7 7 6 7 7 7 9 9 8 9 7 7 7 7 4 4 3 3 5 5 6 11 6 6 3 5 5 3 2 3 5 5 5 5 4 3 2 2 1 2 1 2 2 0 3 4 5 5
12 13 10 9 9 7 9 9 8 9 9 7 7 7 7 7 7 7 7 7 10 8 9 8 8 7 7 6 5 4 6 5 4 5 5 9 9 7 6 7 6 5 4 2 3 5 5 5 4 3 2 1 1 1 3 3 2 4 3 3 4 4
12 13 11 10 11 9 12 9 8 9 10 8 8 8 8 7 8 6 8 6 9 8 9 8 8 7 7 6 5 3 6 6 5 5 5 7 10 7 6 7 6 5 6 5 4 4 5 4 6 3 2 2 2 3 1 4 4 3 3 3 3 3
11 12 12 10 10 8 8 9 10 11 10 10 10 10 9 7 7 7 8 6 9 8 10 8 8 8 7 6 5 4 6 6 5 4 5 6 11 6 7 7 6 4 4 6 5 7 6 6 4 5 5 3 1 2 2 2 5 4 5 4 4 3
12 13 12 12 10 10 9 8 8 10 11 9 8 7 7 8 7 8 8 7 8 9 10 8 8 8 7 7 6 5 6 6 6 5 6 7 10 9 6 7 7 6 6 4 4 4 6 6 5 5 4 4 4 3 2 2 5 6 6 6 5 5
13 13 12 12 12 10 9 7 6 8 9 9 9 9 8 7 5 9 8 8 7 9 9 8 9 8 7 6 6 5 5 6 6 6 6 6 9 9 5 5 5 4 6 7 5 6 5 6 5 8 7 6 5 5 3 6 7 6 4 7 8 7
13 14 12 13 13 11 11 9 8 8 8 9 6 8 7 8 6 7 8 7 7 10 10 9 8 9 8 7 6 5 5 5 6 6 6 5 7 11 9 7 7 5 6 7 8 5 5 7 4 7 5 5 3 3 5 4 7 4 5 5 8 7
12 13 14 16 15 13 12 12 12 13 12 11 10 11 11 12 11 9 9 7 8 9 10 9 8 8 8 7 7 6 5 5 6 6 6 6 6 8 10 8 9 7 6 5 6 6 6 5 4 8 8 2 1 1 3 4 7 4 5 4 5 7
14 14 15 15 16 12 13 12 13 14 12 14 14 11 9 10 10 8 8 9 8 7 10 9 7 8 7 7 7 7 6 5 5 6 6 6 7 8 11 10 7 7 6 4 2 6 8 7 2 6 8 5 3 2 1 7 5 3 4 4 5 6
12 14 14 14 17 13 14 13 13 13 11 11 11 12 12 10 9 9 10 10 8 7 8 9 8 8 9 7 7 7 6 6 5 6 6 7 7 6 6 10 9 8 7 5 5 5 6 7 8 7 8 7 5 4 4 5 3 6 5 6 5 4
15 14 14 17 16 15 13 13 13 12 11 10 10 9 8 8 9 9 11 9 8 8 7 8 8 7 7 8 7 7 7 6 5 5 6 6 7 8 10 10 10 8 8 7 6 6 3 6 8 8 8 7 5 5 4 4 4 2 1 3 6 7
12 14 14 18 17 17 15 13 13 12 13 11 9 10 9 10 8 8 10 10 8 8 8 7 7 8 6 8 7 7 6 7 6 6 6 7 8 8 7 7 9 9 9 9 8 8 10 8 8 7 7 6 6 5 3 3 5 4 4 4 3 6
13 13 14 17 18 18 15 14 14 13 13 12 12 13 11 11 9 8 10 10 10 8 8 8 6 7 7 7 6 6 6 6 7 6 6 6 7 8 7 8 8 9 10 11 9 11 10 8 7 7 7 6 7 6 6 5 5 6 5 3 5 4
13 15 14 16 18 17 14 15 14 13 14 11 12 13 14 15 13 13 12 11 10 9 8 8 7 7 8 7 6 6 7 7 7 6 6 5 6 6 7 7 7 8 8 11 9 10 10 9 10 7 7 6 6 6 5 6 5 5 5 4 3 4
15 14 15 16 17 16 15 15 14 14 13 10 11 11 12 13 11 12 11 11 11 11 10 9 9 9 7 8 7 7 8 8 7 7 6 6 6 7 7 7 7 6 6 5 7 8 9 10 10 7 8 7 6 6 6 6 4 5 3 3 3 4
19 15 15 17 17 16 16 15 14 13 12 11 11 11 11 10 10 10 10 12 13 12 11 11 10 10 9 9 8 7 7 8 7 6 6 6 7 6 6 6 6 6 5 4 3 6 7 8 9 9 6 6 6 5 6 5 6 4 3 4 4 4
15 14 12 17 15 15 15 15 14 13 13 11 12 10 10 10 11 11 11 11 11 11 10 10 10 9 9 9 9 9 8 8 8 7 6 7 7 6 6 5 5 4 4 4 4 5 6 6 6 8 6 6 6 7 6 5 5 4 4 5 4 4
18 16 13 15 15 14 15 14 14 14 13 13 11 10 9 10 10 10 11 10 10 11 10 10 9 10 10 9 10 10 9 9 9 8 8 8 7 7 7 7 5 5 5 4 5 7 5 6 5 6 7 6 5 5 5 5 4 5 5 4 5 4
16 16 16 17 18 16 14 14 15 15 14 13 13 12 11 11 13 10 9 9 9 10 9 9 9 9 11 10 9 10 10 10 9 8 9 9 8 8 8 7 6 6 6 6 6 6 5 6 6 6 5 7 6 5 5 4 5 5 6 5 3 4
Wind_Direction
162 156 155 152 152 150 153 152 150 148 147 147 148 148 148 148 152 161 168 165 167 159 165 163 163 167 167 170 172 170 165 161 165 175 171 173 174 165 152 142 141 144 143 132 123 115 113 107 106 315 18 29 49 57 35 30 35 340 96 91 99 105
161 161 156 153 156 155 155 155 155 151 147 148 151 149 154 156 160 161 171 173 165 180 170 166 176 167 170 177 176 172 169 168 166 176 178 176 175 179 165 150 154 155 146 137 133 128 124 130 186 263 36 7 57 56 48 31 8 54 89 93 101 111
161 164 160 159 158 151 156 159 159 157 152 151 153 155 160 168 168 172 172 173 175 176 184 167 180 173 178 177 176 167 172 174 168 174 181 186 184 186 182 169 165 163 154 150 170 170 158 160 201 208 141 51 63 77 46 20 21 98 84 93 98 111
169 163 164 159 153 155 163 163 156 163 153 156 156 163 166 178 182 178 176 178 168 174 194 160 182 183 184 172 163 169 170 173 175 171 183 189 194 199 195 190 183 170 164 177 211 195 150 161 182 150 72 70 66 56 39 23 22 81 98 105 108 110
168 167 164 158 150 160 168 165 161 161 162 159 161 166 162 182 185 186 174 184 178 184 178 175 169 179 178 170 159 168 175 177 174 180 183 204 178 189 193 194 177 190 201 194 215 166 153 85 93 93 74 80 83 83 86 36 35 62 82 90 106 113
165 168 162 157 159 163 175 163 158 164 165 163 166 169 160 176 180 178 181 181 192 190 184 167 161 176 176 172 171 172 179 186 179 192 174 209 186 184 182 208 178 183 215 207 212 168 145 160 127 122 122 122 94 102 82 94 73 77 86 93 106 107
159 167 163 159 161 164 177 166 152 166 167 164 170 168 165 168 179 161 183 189 187 189 191 178 163 182 183 167 183 184 181 189 176 193 169 205 196 183 178 211 186 184 199 222 205 145 149 155 138 142 172 102 102 100 130 122 36 112 111 106 108 113
159 172 164 166 163 167 177 165 157 160 170 166 168 174 168 167 161 166 178 194 197 191 190 189 162 174 195 170 196 190 183 180 181 193 171 201 206 186 180 210 192 194 196 215 212 150 123 140 145 185 148 116 128 144 141 128 176 131 128 126 124 119
164 171 173 163 160 170 177 164 151 164 170 162 175 178 170 169 161 172 178 185 206 197 189 156 169 172 195 192 203 193 190 173 178 195 176 193 219 187 189 206 207 197 197 201 191 108 135 133 172 154 112 120 131 149 166 202 150 138 134 128 122 124
164 166 168 155 156 172 183 159 155 172 157 160 177 189 169 162 164 170 182 168 196 195 186 180 168 180 193 208 208 199 167 178 179 195 174 189 217 208 192 205 206 209 203 189 97 132 128 138 126 89 90 111 132 156 206 215 142 135 125 116 119 128
161 162 171 160 162 174 169 169 159 175 147 165 178 176 169 160 158 169 174 167 187 169 199 227 170 175 198 199 201 184 169 193 180 196 169 179 214 206 195 228 200 183 42 86 113 119 122 131 127 140 128 123 141 168 221 214 133 127 128 132 136 136
164 167 169 179 163 164 165 181 161 173 154 167 172 165 173 179 176 166 159 175 187 167 192 224 189 169 204 191 193 199 179 199 164 191 158 167 207 195 191 230 171 84 109 94 103 108 123 141 154 124 126 141 157 222 232 182 132 134 145 138 134 126
165 169 176 180 172 159 164 172 169 164 156 161 154 161 185 191 164 148 155 170 186 182 194 225 192 176 203 177 190 193 188 201 171 178 159 160 208 174 214 180 68 89 89 109 102 119 131 134 133 135 142 169 202 236 235 137 131 156 148 135 136 136
163 171 180 183 173 159 165 167 170 166 156 155 154 172 199 175 153 137 146 165 179 192 207 222 197 176 204 175 190 184 186 202 176 189 149 170 182 173 227 92 98 96 109 107 119 125 125 119 90 93 165 211 210 238 233 119 137 103 103 146 141 142
166 172 178 190 167 161 167 169 169 167 156 153 156 178 193 160 129 146 159 163 174 189 212 218 199 175 199 192 188 178 182 196 177 154 143 150 163 187 159 99 119 115 111 114 115 119 121 100 93 166 266 247 220 209 244 86 95 110 108 113 141 143
167 171 181 189 163 159 167 161 172 155 146 149 151 172 175 172 150 156 180 174 174 189 208 213 206 174 194 208 191 173 181 174 181 149 142 133 185 195 103 95 104 119 129 124 125 118 96 116 115 157 256 246 202 167 92 113 153 125 127 145 139 139
167 171 179 184 168 159 170 169 170 157 151 154 158 174 168 174 173 165 196 187 176 188 204 211 203 181 190 211 194 168 178 174 167 138 147 139 138 303 128 107 117 136 132 145 135 131 130 125 157 115 285 254 99 120 121 142 177 164 139 132 126 154
167 170 177 183 174 166 174 170 158 164 149 161 158 162 161 182 193 182 183 196 169 190 199 209 196 186 183 211 205 173 173 171 155 141 149 117 76 238 122 106 143 156 155 147 145 145 148 148 137 150 217 84 64 15 131 177 104 101 133 138 165 150
163 168 177 178 182 178 173 167 157 146 143 153 145 156 170 190 188 199 182 184 168 188 190 206 189 186 187 203 214 173 142 146 144 140 123 102 142 229 171 116 140 168 135 156 144 149 157 145 134 154 166 140 63 259 70 75 60 139 158 162 151 158
163 167 176 173 182 187 179 174 161 140 142 155 158 165 182 190 191 192 169 183 168 178 185 200 188 190 187 194 204 180 152 159 176 126 129 122 165 207 168 134 150 162 155 147 133 150 154 139 137 142 163 129 252 178 185 107 215 215 140 132 150 157
165 168 180 181 180 186 183 173 162 156 152 155 161 185 185 198 197 170 165 184 165 176 182 196 189 190 189 192 199 168 153 151 163 154 150 140 151 199 191 136 156 171 158 153 150 152 152 140 138 134 108 171 254 267 180 161 229 192 157 146 157 180
161 172 184 188 179 183 199 190 164 161 159 161 174 184 187 193 202 158 161 185 166 174 186 192 183 193 191 190 188 183 158 145 160 154 151 119 122 178 213 129 153 167 173 164 158 169 163 145 157 156 156 175 225 282 294 184 244 198 174 159 166 190
164 172 190 186 182 184 186 193 179 162 162 166 173 181 186 186 196 153 162 187 166 177 184 196 189 191 187 191 187 185 163 157 165 164 145 128 137 167 205 143 173 172 160 165 155 172 178 180 153 155 157 153 197 189 247 260 282 269 185 169 162 198
169 173 188 193 184 181 183 185 182 165 160 164 169 174 189 182 175 151 168 185 172 175 184 198 193 194 193 191 183 181 163 160 173 160 155 149 141 141 180 158 188 199 164 147 173 186 196 186 164 157 178 202 181 185 185 227 221 254 233 167 174 198
175 173 186 193 185 177 175 178 174 164 160 155 163 178 178 174 197 159 162 186 188 176 188 198 194 193 194 186 177 175 174 171 171 164 162 161 146 149 188 170 184 207 182 167 169 175 191 201 193 186 161 184 149 220 228 190 183 235 240 193 189 206
180 176 187 190 188 178 180 176 171 172 173 168 172 184 190 175 184 172 170 174 197 185 188 198 198 192 196 183 176 179 182 177 170 164 163 154 134 141 159 185 197 191 187 185 170 162 183 206 206 207 235 264 268 204 195 142 160 201 234 236 192 212
186 184 184 187 188 179 177 178 185 182 180 171 175 183 186 166 172 165 159 171 192 191 189 197 204 187 198 185 173 176 181 184 169 163 166 150 164 161 157 189 185 177 186 144 126 175 186 196 184 251 248 258 259 240 238 143 204 120 193 253 246 197
204 190 182 180 186 186 180 176 184 181 184 181 178 177 176 162 161 157 163 168 180 197 192 195 200 192 193 189 175 174 177 178 179 169 170 167 163 133 131 166 178 177 155 158 173 185 193 191 196 213 221 226 238 234 240 215 231 171 180 181 232 238
201 197 183 178 186 187 183 177 183 180 182 189 174 164 157 158 165 167 161 163 178 192 195 194 196 203 189 194 179 173 176 175 183 181 174 171 149 144 145 157 162 170 175 166 180 205 223 213 203 205 202 223 227 221 225 237 264 245 215 198 198 199
213 210 189 180 187 187 181 171 183 188 184 184 162 152 159 172 176 161 159 168 178 185 188 194 193 198 198 194 184 172 173 180 187 186 188 179 152 142 146 145 155 171 175 183 174 182 209 209 208 200 199 201 212 210 227 244 230 217 228 235 251 182
205 227 198 184 187 187 177 176 184 188 185 185 164 157 163 173 174 171 171 173 178 180 183 190 190 190 199 198 185 174 177 185 186 191 187 162 146 150 151 153 164 176 184 186 178 173 203 206 203 199 201 199 205 205 198 212 208 210 207 199 217 245
196 238 219 191 190 186 177 178 184 186 185 187 170 167 173 173 178 176 175 172 171 176 182 188 190 189 192 194 184 182 179 189 188 185 186 147 152 145 153 163 172 182 187 189 177 177 179 200 203 200 207 203 208 209 212 226 219 221 219 195 217 239
187 218 240 202 194 185 180 179 182 184 182 179 178 173 178 180 171 171 174 172 172 180 180 186 189 191 190 186 184 184 184 193 189 189 179 155 158 155 155 167 168 179 183 178 177 177 173 184 186 194 207 207 207 209 218 217 224 228 200 215 196 251
188 194 220 221 200 187 182 180 181 180 177 176 183 178 184 176 170 173 180 181 179 180 180 185 182 188 185 186 186 187 184 192 180 178 165 161 159 163 152 161 163 181 179 172 191 188 183 185 183 191 190 195 211 221 225 205 212 220 231 186 220 227
186 192 220 227 208 193 182 181 180 179 176 179 183 185 182 172 175 179 184 187 184 179 182 182 181 176 181 185 186 187 188 191 180 174 168 167 161 150 153 150 163 186 170 173 208 200 186 180 188 189 198 198 204 212 220 216 188 206 228 218 190 198
182 182 200 243 216 199 189 182 180 181 179 179 182 187 179 172 180 183 182 188 185 182 182 179 179 177 184 185 183 189 185 194 179 177 172 165 161 157 155 158 169 186 185 171 211 210 185 173 207 203 200 206 214 218 210 219 193 208 240 237 193 184
181 170 181 220 218 202 193 187 186 182 180 180 182 187 185 175 174 180 180 188 187 186 183 180 180 178 182 188 186 187 187 189 183 176 173 170 168 164 162 161 175 184 185 188 211 209 185 180 200 201 207 204 210 213 224 209 197 201 218 235 236 184